contact:dominique.lefevre@mio.osupytheas.fr, maurice.libes@osupytheas.fr, didier.mallarino@osupytheas.fr
Project:EMSO http://www.emso-fr.org/EMSO-France
Depth: 2436.0 m
Title:EMSO Ligure Ouest : Data MII capteur CSTAR
DateTime,Latitude,Longitude,Instrument_Serial,Reference_Counts,Signal_Counts,Corrected_Signal_raw_counts,Calculated_Beam_c_inverse_meters,Internal_thermistor_counts
DateTime,Latitude,Longitude,Instrument_Serial,Reference_Counts,Signal_Counts,Corrected_Signal_raw_counts,Calculated_Beam_c_inverse_meters,Internal_thermistor_counts
2023-04-22T00:02:57,42.805,6.029,CST-1368DR,4321,4788,11765,01.133,551
2023-04-22T00:05:59,42.805,6.029,CST-1368DR,4321,4788,11767,01.132,551
2023-04-22T00:09:00,42.805,6.029,CST-1368DR,4321,4788,11766,01.132,551
2023-04-22T00:12:02,42.805,6.029,CST-1368DR,4321,4789,11770,01.131,551
2023-04-22T00:15:04,42.805,6.029,CST-1368DR,4321,4788,11766,01.132,551
2023-04-22T00:18:05,42.805,6.029,CST-1368DR,4321,4787,11764,01.133,551
2023-04-22T00:21:07,42.805,6.029,CST-1368DR,4321,4788,11767,01.132,551
2023-04-22T00:24:08,42.805,6.029,CST-1368DR,4321,4788,11767,01.132,551
2023-04-22T00:27:10,42.805,6.029,CST-1368DR,4321,4790,11770,01.131,551
2023-04-22T00:30:11,42.805,6.029,CST-1368DR,4321,4789,11768,01.132,551
2023-04-22T00:33:13,42.805,6.029,CST-1368DR,4321,4786,11762,01.134,551
2023-04-22T00:36:15,42.805,6.029,CST-1368DR,4321,4787,11764,01.133,551
2023-04-22T00:39:16,42.805,6.029,CST-1368DR,4321,4788,11766,01.132,552
2023-04-22T00:42:18,42.805,6.029,CST-1368DR,4321,4789,11768,01.132,551
2023-04-22T00:45:19,42.805,6.029,CST-1368DR,4321,4788,11766,01.132,551
2023-04-22T00:48:21,42.805,6.029,CST-1368DR,4321,4788,11765,01.133,551
2023-04-22T00:51:22,42.805,6.029,CST-1368DR,4321,4788,11767,01.132,551
2023-04-22T00:54:24,42.805,6.029,CST-1368DR,4321,4786,11762,01.134,551
2023-04-22T00:57:26,42.805,6.029,CST-1368DR,4321,4787,11764,01.133,551
2023-04-22T01:00:27,42.805,6.029,CST-1368DR,4321,4786,11760,01.134,552
2023-04-22T01:03:29,42.805,6.029,CST-1368DR,4321,4786,11761,01.134,551
2023-04-22T01:06:30,42.805,6.029,CST-1368DR,4321,4787,11764,01.133,551
2023-04-22T01:09:32,42.805,6.029,CST-1368DR,4321,4786,11761,01.134,551
2023-04-22T01:12:34,42.805,6.029,CST-1368DR,4321,4787,11763,01.133,551
2023-04-22T01:15:35,42.805,6.029,CST-1368DR,4321,4786,11762,01.134,551
2023-04-22T01:18:37,42.805,6.029,CST-1368DR,4321,4786,11762,01.134,551
2023-04-22T01:21:38,42.805,6.029,CST-1368DR,4321,4784,11757,01.135,552
2023-04-22T01:24:40,42.805,6.029,CST-1368DR,4321,4787,11764,01.133,551
2023-04-22T01:27:41,42.805,6.029,CST-1368DR,4321,4786,11762,01.134,551
2023-04-22T01:30:43,42.805,6.029,CST-1368DR,4321,4786,11762,01.134,551
2023-04-22T01:33:45,42.805,6.029,CST-1368DR,4321,4784,11756,01.136,551
2023-04-22T01:36:46,42.805,6.029,CST-1368DR,4321,4787,11763,01.133,552
2023-04-22T01:39:48,42.805,6.029,CST-1368DR,4321,4784,11757,01.135,551
2023-04-22T01:42:49,42.805,6.029,CST-1368DR,4321,4787,11763,01.133,552
2023-04-22T01:45:51,42.805,6.029,CST-1368DR,4321,4787,11764,01.133,552
2023-04-22T01:48:52,42.805,6.029,CST-1368DR,4321,4786,11761,01.134,551
2023-04-22T01:51:54,42.805,6.029,CST-1368DR,4321,4788,11767,01.132,551
2023-04-22T01:54:56,42.805,6.029,CST-1368DR,4321,4787,11764,01.133,552
2023-04-22T01:57:57,42.805,6.029,CST-1368DR,4321,4787,11763,01.133,552
2023-04-22T02:00:59,42.805,6.029,CST-1368DR,4321,4787,11765,01.133,552
2023-04-22T02:04:00,42.805,6.029,CST-1368DR,4321,4785,11760,01.134,551
2023-04-22T02:07:02,42.805,6.029,CST-1368DR,4321,4787,11763,01.133,551
2023-04-22T02:10:04,42.805,6.029,CST-1368DR,4321,4787,11764,01.133,551
2023-04-22T02:13:05,42.805,6.029,CST-1368DR,4321,4787,11763,01.133,552
2023-04-22T02:16:07,42.805,6.029,CST-1368DR,4321,4786,11761,01.134,551
2023-04-22T02:19:08,42.805,6.029,CST-1368DR,4321,4787,11763,01.133,551
2023-04-22T02:22:10,42.805,6.029,CST-1368DR,4321,4787,11763,01.133,551
2023-04-22T02:25:11,42.805,6.029,CST-1368DR,4321,4787,11763,01.133,551
2023-04-22T02:28:13,42.805,6.029,CST-1368DR,4321,4788,11766,01.132,551
2023-04-22T02:31:15,42.805,6.029,CST-1368DR,4321,4787,11764,01.133,551
2023-04-22T02:34:16,42.805,6.029,CST-1368DR,4321,4785,11759,01.135,551
2023-04-22T02:37:18,42.805,6.029,CST-1368DR,4321,4783,11753,01.137,551
2023-04-22T02:40:19,42.805,6.029,CST-1368DR,4321,4787,11763,01.133,551
2023-04-22T02:43:21,42.805,6.029,CST-1368DR,4321,4786,11762,01.134,551
2023-04-22T02:46:22,42.805,6.029,CST-1368DR,4321,4787,11763,01.133,551
2023-04-22T02:49:24,42.805,6.029,CST-1368DR,4321,4786,11762,01.134,552
2023-04-22T02:52:26,42.805,6.029,CST-1368DR,4321,4787,11763,01.133,551
2023-04-22T02:55:27,42.805,6.029,CST-1368DR,4321,4787,11765,01.133,551
2023-04-22T02:58:29,42.805,6.029,CST-1368DR,4321,4788,11767,01.132,551
2023-04-22T03:01:30,42.805,6.029,CST-1368DR,4321,4786,11762,01.134,552
2023-04-22T03:04:32,42.805,6.029,CST-1368DR,4321,4786,11760,01.134,551
2023-04-22T03:07:34,42.805,6.029,CST-1368DR,4321,4787,11763,01.133,551
2023-04-22T03:10:35,42.805,6.029,CST-1368DR,4321,4787,11763,01.133,551
2023-04-22T03:13:37,42.805,6.029,CST-1368DR,4321,4787,11764,01.133,551
2023-04-22T03:16:38,42.805,6.029,CST-1368DR,4321,4787,11763,01.133,551
2023-04-22T03:19:40,42.805,6.029,CST-1368DR,4321,4784,11757,01.135,551
2023-04-22T03:22:41,42.805,6.029,CST-1368DR,4321,4788,11765,01.133,551
2023-04-22T03:25:43,42.805,6.029,CST-1368DR,4321,4787,11765,01.133,551
2023-04-22T03:28:45,42.805,6.029,CST-1368DR,4321,4785,11759,01.135,551
2023-04-22T03:31:46,42.805,6.029,CST-1368DR,4321,4784,11756,01.136,551
2023-04-22T03:34:48,42.805,6.029,CST-1368DR,4321,4786,11760,01.134,551
2023-04-22T03:37:49,42.805,6.029,CST-1368DR,4321,4785,11760,01.134,551
2023-04-22T03:40:51,42.805,6.029,CST-1368DR,4321,4787,11763,01.133,551
2023-04-22T03:43:52,42.805,6.029,CST-1368DR,4321,4786,11762,01.134,551
2023-04-22T03:46:54,42.805,6.029,CST-1368DR,4321,4787,11763,01.133,552
2023-04-22T03:49:56,42.805,6.029,CST-1368DR,4321,4787,11765,01.133,552
2023-04-22T03:52:57,42.805,6.029,CST-1368DR,4321,4787,11763,01.133,551
2023-04-22T03:55:59,42.805,6.029,CST-1368DR,4321,4786,11762,01.134,551
2023-04-22T03:59:00,42.805,6.029,CST-1368DR,4321,4786,11762,01.134,551
2023-04-22T04:02:02,42.805,6.029,CST-1368DR,4321,4787,11763,01.133,551
2023-04-22T04:05:04,42.805,6.029,CST-1368DR,4321,4786,11761,01.134,551
2023-04-22T04:08:05,42.805,6.029,CST-1368DR,4321,4786,11762,01.134,551
2023-04-22T04:11:07,42.805,6.029,CST-1368DR,4321,4786,11762,01.134,551
2023-04-22T04:14:08,42.805,6.029,CST-1368DR,4321,4786,11760,01.134,551
2023-04-22T04:17:10,42.805,6.029,CST-1368DR,4321,4784,11757,01.135,551
2023-04-22T04:20:11,42.805,6.029,CST-1368DR,4321,4787,11763,01.133,551
2023-04-22T04:23:13,42.805,6.029,CST-1368DR,4321,4786,11762,01.134,552
2023-04-22T04:26:15,42.805,6.029,CST-1368DR,4321,4786,11762,01.134,552
2023-04-22T04:29:16,42.805,6.029,CST-1368DR,4321,4784,11757,01.135,551
2023-04-22T04:32:21,42.805,6.029,CST-1368DR,4321,4787,11763,01.133,552
2023-04-22T04:35:22,42.805,6.029,CST-1368DR,4321,4781,11749,01.138,551
2023-04-22T04:38:24,42.805,6.029,CST-1368DR,4321,4787,11763,01.133,551
2023-04-22T04:41:26,42.805,6.029,CST-1368DR,4321,4785,11759,01.135,551
2023-04-22T04:44:27,42.805,6.029,CST-1368DR,4321,4788,11765,01.133,551
2023-04-22T04:47:29,42.805,6.029,CST-1368DR,4321,4787,11764,01.133,551
2023-04-22T04:50:30,42.805,6.029,CST-1368DR,4321,4786,11760,01.134,551
2023-04-22T04:53:32,42.805,6.029,CST-1368DR,4321,4784,11757,01.135,551
2023-04-22T04:56:33,42.805,6.029,CST-1368DR,4321,4788,11765,01.133,552
2023-04-22T04:59:35,42.805,6.029,CST-1368DR,4321,4787,11763,01.133,551
2023-04-22T05:02:37,42.805,6.029,CST-1368DR,4321,4788,11765,01.133,551
2023-04-22T05:05:38,42.805,6.029,CST-1368DR,4321,4787,11765,01.133,551
2023-04-22T05:08:40,42.805,6.029,CST-1368DR,4321,4787,11764,01.133,552
2023-04-22T05:11:41,42.805,6.029,CST-1368DR,4321,4787,11763,01.133,551
2023-04-22T05:14:43,42.805,6.029,CST-1368DR,4321,4786,11761,01.134,551
2023-04-22T05:17:44,42.805,6.029,CST-1368DR,4321,4787,11764,01.133,551
2023-04-22T05:20:46,42.805,6.029,CST-1368DR,4321,4786,11762,01.134,551
2023-04-22T05:23:48,42.805,6.029,CST-1368DR,4321,4787,11763,01.133,551
2023-04-22T05:26:49,42.805,6.029,CST-1368DR,4321,4786,11762,01.134,551
2023-04-22T05:29:51,42.805,6.029,CST-1368DR,4321,4788,11766,01.132,551
2023-04-22T05:32:52,42.805,6.029,CST-1368DR,4321,4787,11764,01.133,552
2023-04-22T05:35:54,42.805,6.029,CST-1368DR,4321,4787,11764,01.133,551
2023-04-22T05:38:56,42.805,6.029,CST-1368DR,4321,4787,11764,01.133,552
2023-04-22T05:41:57,42.805,6.029,CST-1368DR,4321,4787,11764,01.133,551
2023-04-22T05:44:59,42.805,6.029,CST-1368DR,4321,4788,11765,01.133,552
2023-04-22T05:48:00,42.805,6.029,CST-1368DR,4321,4787,11764,01.133,552
2023-04-22T05:51:02,42.805,6.029,CST-1368DR,4321,4786,11761,01.134,551
2023-04-22T05:54:03,42.805,6.029,CST-1368DR,4321,4787,11763,01.133,551
2023-04-22T05:57:05,42.805,6.029,CST-1368DR,4321,4787,11765,01.133,552
2023-04-22T06:00:07,42.805,6.029,CST-1368DR,4321,4788,11765,01.133,551
2023-04-22T06:03:08,42.805,6.029,CST-1368DR,4321,4786,11762,01.134,551
2023-04-22T06:06:10,42.805,6.029,CST-1368DR,4321,4785,11758,01.135,551
2023-04-22T06:09:11,42.805,6.029,CST-1368DR,4321,4787,11765,01.133,551
2023-04-22T06:12:13,42.805,6.029,CST-1368DR,4321,4787,11764,01.133,551
2023-04-22T06:15:14,42.805,6.029,CST-1368DR,4321,4788,11767,01.132,551
2023-04-22T06:18:16,42.805,6.029,CST-1368DR,4321,4785,11760,01.134,551
2023-04-22T06:21:18,42.805,6.029,CST-1368DR,4321,4787,11763,01.133,551
2023-04-22T06:24:19,42.805,6.029,CST-1368DR,4321,4788,11766,01.132,551
2023-04-22T06:27:21,42.805,6.029,CST-1368DR,4321,4788,11765,01.133,551
2023-04-22T06:30:23,42.805,6.029,CST-1368DR,4321,4786,11762,01.134,551
2023-04-22T06:33:25,42.805,6.029,CST-1368DR,4321,4787,11765,01.133,551
2023-04-22T06:36:27,42.805,6.029,CST-1368DR,4321,4787,11763,01.133,551
2023-04-22T06:39:28,42.805,6.029,CST-1368DR,4321,4787,11763,01.133,551
2023-04-22T06:42:30,42.805,6.029,CST-1368DR,4321,4786,11762,01.134,551
2023-04-22T06:45:31,42.805,6.029,CST-1368DR,4321,4787,11764,01.133,551
2023-04-22T06:48:33,42.805,6.029,CST-1368DR,4321,4787,11763,01.133,551
2023-04-22T06:51:34,42.805,6.029,CST-1368DR,4321,4786,11762,01.134,551
2023-04-22T06:54:36,42.805,6.029,CST-1368DR,4321,4785,11758,01.135,551
2023-04-22T06:57:38,42.805,6.029,CST-1368DR,4321,4783,11755,01.136,551
2023-04-22T07:00:39,42.805,6.029,CST-1368DR,4321,4787,11763,01.133,551
2023-04-22T07:03:41,42.805,6.029,CST-1368DR,4321,4787,11764,01.133,551
2023-04-22T07:06:42,42.805,6.029,CST-1368DR,4321,4787,11764,01.133,551
2023-04-22T07:09:44,42.805,6.029,CST-1368DR,4321,4787,11763,01.133,551
2023-04-22T07:12:46,42.805,6.029,CST-1368DR,4321,4786,11760,01.134,551
2023-04-22T07:15:47,42.805,6.029,CST-1368DR,4321,4787,11763,01.133,551
2023-04-22T07:18:49,42.805,6.029,CST-1368DR,4321,4787,11764,01.133,551
2023-04-22T07:21:50,42.805,6.029,CST-1368DR,4321,4787,11763,01.133,551
2023-04-22T07:24:52,42.805,6.029,CST-1368DR,4321,4787,11763,01.133,552
2023-04-22T07:27:53,42.805,6.029,CST-1368DR,4321,4781,11748,01.138,551
2023-04-22T07:30:55,42.805,6.029,CST-1368DR,4321,4787,11763,01.133,551
2023-04-22T07:33:57,42.805,6.029,CST-1368DR,4321,4787,11764,01.133,551
2023-04-22T07:36:58,42.805,6.029,CST-1368DR,4321,4786,11762,01.134,551
2023-04-22T07:40:00,42.805,6.029,CST-1368DR,4321,4785,11759,01.135,551
2023-04-22T07:43:01,42.805,6.029,CST-1368DR,4321,4786,11762,01.134,552
2023-04-22T07:46:03,42.805,6.029,CST-1368DR,4321,4787,11763,01.133,551
2023-04-22T07:49:04,42.805,6.029,CST-1368DR,4321,4787,11764,01.133,551
2023-04-22T07:52:06,42.805,6.029,CST-1368DR,4321,4787,11763,01.133,551
2023-04-22T07:55:08,42.805,6.029,CST-1368DR,4321,4782,11751,01.137,551
2023-04-22T07:58:09,42.805,6.029,CST-1368DR,4321,4787,11764,01.133,552
2023-04-22T08:01:11,42.805,6.029,CST-1368DR,4321,4787,11765,01.133,551
2023-04-22T08:04:12,42.805,6.029,CST-1368DR,4321,4786,11762,01.134,551
2023-04-22T08:07:14,42.805,6.029,CST-1368DR,4321,4785,11760,01.134,551
2023-04-22T08:10:16,42.805,6.029,CST-1368DR,4321,4786,11762,01.134,551
2023-04-22T08:13:17,42.805,6.029,CST-1368DR,4321,4787,11763,01.133,551
2023-04-22T08:16:19,42.805,6.029,CST-1368DR,4321,4787,11763,01.133,551
2023-04-22T08:19:20,42.805,6.029,CST-1368DR,4321,4787,11763,01.133,551
2023-04-22T08:22:22,42.805,6.029,CST-1368DR,4321,4786,11762,01.134,551
2023-04-22T08:25:23,42.805,6.029,CST-1368DR,4321,4787,11764,01.133,551
2023-04-22T08:28:25,42.805,6.029,CST-1368DR,4321,4788,11766,01.132,551
2023-04-22T08:31:27,42.805,6.029,CST-1368DR,4321,4787,11764,01.133,551
2023-04-22T08:34:28,42.805,6.029,CST-1368DR,4321,4786,11762,01.134,551
2023-04-22T08:37:30,42.805,6.029,CST-1368DR,4321,4787,11763,01.133,551
2023-04-22T08:40:31,42.805,6.029,CST-1368DR,4321,4786,11762,01.134,551
2023-04-22T08:43:33,42.805,6.029,CST-1368DR,4321,4787,11765,01.133,551
2023-04-22T08:46:34,42.805,6.029,CST-1368DR,4321,4779,11744,01.140,551
2023-04-22T08:49:36,42.805,6.029,CST-1368DR,4321,4785,11759,01.135,551
2023-04-22T08:52:38,42.805,6.029,CST-1368DR,4321,4785,11760,01.134,552
2023-04-22T08:55:39,42.805,6.029,CST-1368DR,4321,4786,11761,01.134,551
2023-04-22T08:58:41,42.805,6.029,CST-1368DR,4321,4787,11763,01.133,551
2023-04-22T09:01:42,42.805,6.029,CST-1368DR,4321,4786,11761,01.134,551
2023-04-22T09:04:44,42.805,6.029,CST-1368DR,4321,4786,11762,01.134,551
2023-04-22T09:07:45,42.805,6.029,CST-1368DR,4321,4786,11760,01.134,551
2023-04-22T09:10:47,42.805,6.029,CST-1368DR,4321,4786,11760,01.134,551
2023-04-22T09:13:49,42.805,6.029,CST-1368DR,4321,4786,11762,01.134,551
2023-04-22T09:16:50,42.805,6.029,CST-1368DR,4321,4785,11759,01.135,551
2023-04-22T09:19:52,42.805,6.029,CST-1368DR,4321,4786,11760,01.134,552
2023-04-22T09:22:53,42.805,6.029,CST-1368DR,4321,4786,11762,01.134,552
2023-04-22T09:25:55,42.805,6.029,CST-1368DR,4321,4787,11763,01.133,551
2023-04-22T09:28:57,42.805,6.029,CST-1368DR,4321,4786,11762,01.134,552
2023-04-22T09:31:58,42.805,6.029,CST-1368DR,4321,4786,11760,01.134,551
2023-04-22T09:35:00,42.805,6.029,CST-1368DR,4321,4786,11762,01.134,552
2023-04-22T09:38:01,42.805,6.029,CST-1368DR,4321,4785,11760,01.134,552
2023-04-22T09:41:03,42.805,6.029,CST-1368DR,4321,4785,11760,01.134,552
2023-04-22T09:44:04,42.805,6.029,CST-1368DR,4321,4785,11760,01.134,551
2023-04-22T09:47:06,42.805,6.029,CST-1368DR,4321,4787,11763,01.133,551
2023-04-22T09:50:08,42.805,6.029,CST-1368DR,4321,4787,11763,01.133,551
2023-04-22T09:53:09,42.805,6.029,CST-1368DR,4321,4787,11764,01.133,551
2023-04-22T09:56:11,42.805,6.029,CST-1368DR,4321,4787,11763,01.133,551
2023-04-22T09:59:12,42.805,6.029,CST-1368DR,4321,4786,11762,01.134,551
2023-04-22T10:02:14,42.805,6.029,CST-1368DR,4321,4786,11762,01.134,551
2023-04-22T10:05:15,42.805,6.029,CST-1368DR,4321,4787,11763,01.133,552
2023-04-22T10:08:17,42.805,6.029,CST-1368DR,4321,4786,11762,01.134,551
2023-04-22T10:11:19,42.805,6.029,CST-1368DR,4321,4787,11763,01.133,551
2023-04-22T10:14:20,42.805,6.029,CST-1368DR,4321,4787,11763,01.133,551
2023-04-22T10:17:22,42.805,6.029,CST-1368DR,4321,4786,11762,01.134,551
2023-04-22T10:20:23,42.805,6.029,CST-1368DR,4321,4785,11759,01.135,551
2023-04-22T10:23:25,42.805,6.029,CST-1368DR,4321,4787,11764,01.133,551
2023-04-22T10:26:27,42.805,6.029,CST-1368DR,4321,4787,11763,01.133,551
2023-04-22T10:29:28,42.805,6.029,CST-1368DR,4321,4785,11758,01.135,551
2023-04-22T10:32:29,42.805,6.029,CST-1368DR,4321,4785,11760,01.134,551
2023-04-22T10:35:31,42.805,6.029,CST-1368DR,4321,4784,11756,01.136,551
2023-04-22T10:38:32,42.805,6.029,CST-1368DR,4321,4783,11755,01.136,552
2023-04-22T10:41:34,42.805,6.029,CST-1368DR,4321,4785,11760,01.134,551
2023-04-22T10:44:36,42.805,6.029,CST-1368DR,4321,4786,11760,01.134,551
2023-04-22T10:47:37,42.805,6.029,CST-1368DR,4321,4786,11761,01.134,552
2023-04-22T10:50:39,42.805,6.029,CST-1368DR,4321,4786,11762,01.134,551
2023-04-22T10:53:40,42.805,6.029,CST-1368DR,4321,4786,11762,01.134,552
2023-04-22T10:56:42,42.805,6.029,CST-1368DR,4321,4786,11762,01.134,551
2023-04-22T10:59:44,42.805,6.029,CST-1368DR,4321,4787,11763,01.133,551
2023-04-22T11:02:45,42.805,6.029,CST-1368DR,4321,4787,11763,01.133,551
2023-04-22T11:05:47,42.805,6.029,CST-1368DR,4321,4787,11763,01.133,551
2023-04-22T11:08:48,42.805,6.029,CST-1368DR,4321,4786,11761,01.134,552
2023-04-22T11:11:50,42.805,6.029,CST-1368DR,4321,4786,11762,01.134,551
2023-04-22T11:14:51,42.805,6.029,CST-1368DR,4321,4786,11762,01.134,552
2023-04-22T11:17:53,42.805,6.029,CST-1368DR,4321,4786,11761,01.134,551
2023-04-22T11:20:55,42.805,6.029,CST-1368DR,4321,4786,11762,01.134,551
2023-04-22T11:23:56,42.805,6.029,CST-1368DR,4321,4786,11761,01.134,551
2023-04-22T11:26:58,42.805,6.029,CST-1368DR,4321,4786,11760,01.134,551
2023-04-22T11:29:59,42.805,6.029,CST-1368DR,4320,4787,11766,01.132,552
2023-04-22T11:33:01,42.805,6.029,CST-1368DR,4321,4786,11762,01.134,552
2023-04-22T11:36:02,42.805,6.029,CST-1368DR,4321,4785,11760,01.134,552
2023-04-22T11:39:04,42.805,6.029,CST-1368DR,4321,4785,11760,01.134,552
2023-04-22T11:42:06,42.805,6.029,CST-1368DR,4320,4786,11763,01.133,551
2023-04-22T11:45:07,42.805,6.029,CST-1368DR,4321,4786,11760,01.134,551
2023-04-22T11:48:09,42.805,6.029,CST-1368DR,4321,4786,11760,01.134,551
2023-04-22T11:51:10,42.805,6.029,CST-1368DR,4321,4786,11762,01.134,551
2023-04-22T11:54:12,42.805,6.029,CST-1368DR,4320,4785,11762,01.134,551
2023-04-22T11:57:13,42.805,6.029,CST-1368DR,4320,4786,11764,01.133,551
2023-04-22T12:00:15,42.805,6.029,CST-1368DR,4321,4786,11762,01.134,552
2023-04-22T12:03:17,42.805,6.029,CST-1368DR,4320,4786,11764,01.133,552
2023-04-22T12:06:18,42.805,6.029,CST-1368DR,4321,4786,11761,01.134,552
2023-04-22T12:09:20,42.805,6.029,CST-1368DR,4320,4786,11764,01.133,551
2023-04-22T12:12:21,42.805,6.029,CST-1368DR,4320,4785,11762,01.134,551
2023-04-22T12:15:23,42.805,6.029,CST-1368DR,4321,4785,11759,01.135,551
2023-04-22T12:18:25,42.805,6.029,CST-1368DR,4320,4784,11759,01.135,551
2023-04-22T12:21:26,42.805,6.029,CST-1368DR,4320,4786,11764,01.133,551
2023-04-22T12:24:28,42.805,6.029,CST-1368DR,4321,4787,11763,01.133,551
2023-04-22T12:27:29,42.805,6.029,CST-1368DR,4320,4787,11766,01.132,552
2023-04-22T12:30:31,42.805,6.029,CST-1368DR,4321,4786,11762,01.134,551
2023-04-22T12:33:32,42.805,6.029,CST-1368DR,4321,4786,11762,01.134,551
2023-04-22T12:36:34,42.805,6.029,CST-1368DR,4320,4787,11766,01.132,552
2023-04-22T12:39:36,42.805,6.029,CST-1368DR,4321,4787,11763,01.133,551
2023-04-22T12:42:37,42.805,6.029,CST-1368DR,4320,4786,11765,01.133,551
2023-04-22T12:45:39,42.805,6.029,CST-1368DR,4320,4787,11765,01.133,551
2023-04-22T12:48:40,42.805,6.029,CST-1368DR,4320,4786,11764,01.133,551
2023-04-22T12:51:42,42.805,6.029,CST-1368DR,4320,4787,11765,01.133,551
2023-04-22T12:54:43,42.805,6.029,CST-1368DR,4320,4785,11762,01.134,551
2023-04-22T12:57:45,42.805,6.029,CST-1368DR,4320,4785,11761,01.134,551
2023-04-22T13:00:47,42.805,6.029,CST-1368DR,4320,4787,11767,01.132,551
2023-04-22T13:03:48,42.805,6.029,CST-1368DR,4320,4788,11768,01.132,551
2023-04-22T13:06:50,42.805,6.029,CST-1368DR,4320,4775,11736,01.143,551
2023-04-22T13:09:51,42.805,6.029,CST-1368DR,4320,4772,11730,01.145,551
2023-04-22T13:12:53,42.805,6.029,CST-1368DR,4320,4764,11711,01.151,552
2023-04-22T13:15:55,42.805,6.029,CST-1368DR,4320,4775,11738,01.142,551
2023-04-22T13:18:56,42.805,6.029,CST-1368DR,4320,4775,11738,01.142,551
2023-04-22T13:21:58,42.805,6.029,CST-1368DR,4320,4775,11737,01.142,551
2023-04-22T13:24:59,42.805,6.029,CST-1368DR,4320,4774,11735,01.143,552
2023-04-22T13:28:01,42.805,6.029,CST-1368DR,4320,4768,11719,01.148,552
2023-04-22T13:31:02,42.805,6.029,CST-1368DR,4320,4768,11719,01.148,551
2023-04-22T13:34:04,42.805,6.029,CST-1368DR,4320,4769,11721,01.148,551
2023-04-22T13:37:06,42.805,6.029,CST-1368DR,4320,4770,11726,01.146,552
2023-04-22T13:40:07,42.805,6.029,CST-1368DR,4320,4772,11730,01.145,552
2023-04-22T13:43:09,42.805,6.029,CST-1368DR,4320,4766,11714,01.150,551
2023-04-22T13:46:10,42.805,6.029,CST-1368DR,4320,4769,11722,01.147,551
2023-04-22T13:49:12,42.805,6.029,CST-1368DR,4320,4770,11726,01.146,551
2023-04-22T13:52:13,42.805,6.029,CST-1368DR,4320,4769,11722,01.147,551
2023-04-22T13:55:15,42.805,6.029,CST-1368DR,4320,4772,11729,01.145,551
2023-04-22T13:58:17,42.805,6.029,CST-1368DR,4320,4770,11724,01.147,551
2023-04-22T14:01:18,42.805,6.029,CST-1368DR,4320,4772,11729,01.145,551
2023-04-22T14:04:20,42.805,6.029,CST-1368DR,4320,4769,11722,01.147,551
2023-04-22T14:07:21,42.805,6.029,CST-1368DR,4320,4770,11724,01.147,552
2023-04-22T14:10:23,42.805,6.029,CST-1368DR,4320,4772,11730,01.145,551
2023-04-22T14:13:25,42.805,6.029,CST-1368DR,4320,4769,11723,01.147,551
2023-04-22T14:16:26,42.805,6.029,CST-1368DR,4320,4763,11706,01.153,552
2023-04-22T14:19:28,42.805,6.029,CST-1368DR,4320,4781,11752,01.137,551
2023-04-22T14:22:29,42.805,6.029,CST-1368DR,4320,4782,11753,01.137,551
2023-04-22T14:25:31,42.805,6.029,CST-1368DR,4320,4778,11745,01.139,551
2023-04-22T14:28:32,42.805,6.029,CST-1368DR,4320,4782,11753,01.137,551
2023-04-22T14:31:34,42.805,6.029,CST-1368DR,4320,4776,11738,01.142,551
2023-04-22T14:34:36,42.805,6.029,CST-1368DR,4320,4784,11760,01.134,552
2023-04-22T14:37:37,42.805,6.029,CST-1368DR,4320,4781,11751,01.137,551
2023-04-22T14:40:39,42.805,6.029,CST-1368DR,4320,4781,11751,01.137,551
2023-04-22T14:43:40,42.805,6.029,CST-1368DR,4320,4782,11755,01.136,551
2023-04-22T14:46:42,42.805,6.029,CST-1368DR,4320,4774,11735,01.143,552
2023-04-22T14:49:43,42.805,6.029,CST-1368DR,4320,4777,11742,01.140,552
2023-04-22T14:52:45,42.805,6.029,CST-1368DR,4320,4781,11752,01.137,551
2023-04-22T14:55:47,42.805,6.029,CST-1368DR,4320,4781,11751,01.137,551
2023-04-22T14:58:48,42.805,6.029,CST-1368DR,4321,4781,11748,01.138,551
2023-04-22T15:01:50,42.805,6.029,CST-1368DR,4320,4781,11751,01.137,551
2023-04-22T15:04:51,42.805,6.029,CST-1368DR,4320,4778,11743,01.140,551
2023-04-22T15:07:53,42.805,6.029,CST-1368DR,4320,4783,11756,01.136,551
2023-04-22T15:10:55,42.805,6.029,CST-1368DR,4320,4776,11740,01.141,551
2023-04-22T15:13:56,42.805,6.029,CST-1368DR,4320,4783,11756,01.136,551
2023-04-22T15:16:58,42.805,6.029,CST-1368DR,4320,4782,11753,01.137,551
2023-04-22T15:19:59,42.805,6.029,CST-1368DR,4320,4782,11753,01.137,551
2023-04-22T15:23:01,42.805,6.029,CST-1368DR,4320,4782,11753,01.137,551
2023-04-22T15:26:02,42.805,6.029,CST-1368DR,4320,4780,11750,01.138,551
2023-04-22T15:29:04,42.805,6.029,CST-1368DR,4320,4781,11753,01.137,551
2023-04-22T15:32:06,42.805,6.029,CST-1368DR,4320,4777,11742,01.140,551
2023-04-22T15:35:07,42.805,6.029,CST-1368DR,4320,4782,11754,01.136,551
2023-04-22T15:38:09,42.805,6.029,CST-1368DR,4320,4782,11755,01.136,552
2023-04-22T15:41:10,42.805,6.029,CST-1368DR,4320,4782,11755,01.136,551
2023-04-22T15:44:12,42.805,6.029,CST-1368DR,4320,4783,11757,01.135,552
2023-04-22T15:47:13,42.805,6.029,CST-1368DR,4320,4781,11753,01.137,551
2023-04-22T15:50:15,42.805,6.029,CST-1368DR,4320,4783,11756,01.136,551
2023-04-22T15:53:17,42.805,6.029,CST-1368DR,4320,4783,11756,01.136,551
2023-04-22T15:56:18,42.805,6.029,CST-1368DR,4320,4783,11757,01.135,551
2023-04-22T15:59:20,42.805,6.029,CST-1368DR,4320,4783,11756,01.136,551
2023-04-22T16:02:21,42.805,6.029,CST-1368DR,4320,4782,11755,01.136,552
2023-04-22T16:05:23,42.805,6.029,CST-1368DR,4320,4784,11759,01.135,552
2023-04-22T16:08:25,42.805,6.029,CST-1368DR,4320,4782,11755,01.136,552
2023-04-22T16:11:26,42.805,6.029,CST-1368DR,4320,4782,11755,01.136,551
2023-04-22T16:14:28,42.805,6.029,CST-1368DR,4320,4783,11757,01.135,551
2023-04-22T16:17:29,42.805,6.029,CST-1368DR,4320,4784,11759,01.135,551
2023-04-22T16:20:31,42.805,6.029,CST-1368DR,4320,4783,11757,01.135,551
2023-04-22T16:23:32,42.805,6.029,CST-1368DR,4320,4783,11757,01.135,552
2023-04-22T16:26:34,42.805,6.029,CST-1368DR,4320,4783,11756,01.136,551
2023-04-22T16:29:36,42.805,6.029,CST-1368DR,4320,4784,11759,01.135,551
2023-04-22T16:32:37,42.805,6.029,CST-1368DR,4320,4783,11757,01.135,552
2023-04-22T16:35:39,42.805,6.029,CST-1368DR,4320,4783,11757,01.135,551
2023-04-22T16:38:40,42.805,6.029,CST-1368DR,4320,4783,11757,01.135,551